Pegasus-1 (41846 NORAD) Tracking and Keplerian Element Data

This shows tracking and keplerian element data for the satellite.

Feedback or suggestion? Click here.




ElementValue
Catalog41846
NamePegasus-1
Epoch Orbit23030
Epoch Day91.10450756
Epoch Year2021
RAAN149.5768
Inclination98.6196
Eccentricity0.0367263
Argument of Perigee96.0654
Mean Anonmoly268.2502
Mean Motion14.37989015
Decay Rate5.16E-06
L11 41846U 16066F 21091.10450756 .00000516 00000-0 86742-4 0 9996
L22 41846 98.6196 149.5768 0367263 96.0654 268.2502 14.37989015230301



Live tracking and technical data element details for Pegasus-1 (NORAD 41846). Pegasus-1 can be tracked NOW for your location showing map with azimuth and elevation plus other details from your city location.







IsCatalogInMostPopularTable: catalog: 41846, numindb: 589
Update: records affected: 1



GetName: 41846 Pegasus-1

Hit Count: updated at: Thu, 23 Jan 2025 16:04:46 GMT